| time (UTC) | temp C | wind direction | speed KPH | gust KPH | rain 1hr cm | rain 24hr cm | rain mn cm | humidity % | barometer mb |
| 20260509105033 | 8 | 181 | 0.0 | 0.0 | 0.03 | 0.03 | 0.03 | 89 | 1013.4 |
| 20260509104533 | 8 | 181 | 0.0 | 0.0 | 0.03 | 0.03 | 0.03 | 89 | 1013.4 |
| 20260509104032 | 8 | 181 | 0.0 | 0.0 | 0.03 | 0.03 | 0.03 | 88 | 1013.4 |
| 20260509103533 | 8 | 181 | 0.0 | 0.0 | 0.03 | 0.03 | 0.03 | 87 | 1013.5 |
| 20260509103031 | 8 | 181 | 0.0 | 0.0 | 0.03 | 0.03 | 0.03 | 87 | 1013.5 |
| 20260509102532 | 8 | 181 | 0.0 | 0.0 | 0.00 | 0.00 | 0.00 | 86 | 1013.2 |
| 20260509102032 | 8 | 181 | 0.0 | 0.0 | 0.00 | 0.00 | 0.00 | 86 | 1013.1 |
| 20260509101536 | 8 | 180 | 0.0 | 0.0 | 0.00 | 0.00 | 0.00 | 86 | 1013.1 |
| 20260509101029 | 8 | 181 | 0.0 | 0.0 | 0.00 | 0.00 | 0.00 | 85 | 1013.2 |
| 20260509100529 | 8 | 180 | 0.0 | 0.0 | 0.00 | 0.00 | 0.00 | 84 | 1013.2 |
| 20260509100028 | 8 | 180 | 0.0 | 0.0 | 0.00 | 0.00 | 0.00 | 83 | 1013.2 |
| 20260509095528 | 8 | 180 | 0.0 | 0.0 | 0.00 | 0.00 | 0.00 | 82 | 1013.3 |
| 20260509095027 | 8 | 181 | 0.0 | 0.0 | 0.00 | 0.00 | 0.00 | 82 | 1013.3 |
| 20260509094526 | 8 | 181 | 0.0 | 0.0 | 0.00 | 0.00 | 0.00 | 82 | 1013.2 |
| 20260509094027 | 8 | 181 | 0.0 | 0.0 | 0.00 | 0.00 | 0.00 | 82 | 1013.1 |
| 20260509093527 | 8 | 181 | 0.0 | 0.0 | 0.00 | 0.00 | 0.00 | 81 | 1012.9 |
| 20260509093025 | 8 | 181 | 0.0 | 0.0 | 0.00 | 0.00 | 0.00 | 81 | 1012.7 |
| 20260509092524 | 8 | 180 | 0.0 | 0.0 | 0.00 | 0.00 | 0.00 | 80 | 1012.6 |
| 20260509092028 | 8 | 181 | 0.0 | 0.0 | 0.00 | 0.00 | 0.00 | 80 | 1012.6 |
| 20260509091525 | 8 | 180 | 0.0 | 0.0 | 0.00 | 0.00 | 0.00 | 80 | 1012.5 |
| 20260509091023 | 8 | 180 | 0.0 | 0.0 | 0.00 | 0.00 | 0.00 | 80 | 1012.5 |
| 20260509090528 | 8 | 181 | 0.0 | 0.0 | 0.00 | 0.00 | 0.00 | 80 | 1012.4 |
| 20260509090023 | 8 | 181 | 0.0 | 0.0 | 0.00 | 0.00 | 0.00 | 80 | 1012.3 |
| 20260509085522 | 8 | 181 | 0.0 | 0.0 | 0.00 | 0.00 | 0.00 | 80 | 1012.2 |
| 20260509085021 | 8 | 180 | 0.0 | 0.0 | 0.00 | 0.00 | 0.00 | 79 | 1012.3 |
| 20260509084521 | 8 | 181 | 0.0 | 0.0 | 0.00 | 0.00 | 0.00 | 79 | 1012.3 |
| 20260509084021 | 8 | 181 | 0.0 | 0.0 | 0.00 | 0.00 | 0.00 | 79 | 1012.2 |
| 20260509083520 | 8 | 180 | 0.0 | 0.0 | 0.00 | 0.00 | 0.00 | 79 | 1012.1 |
| 20260509083021 | 7 | 181 | 0.0 | 0.0 | 0.00 | 0.00 | 0.00 | 79 | 1012.1 |
| 20260509082519 | 7 | 181 | 0.0 | 0.0 | 0.00 | 0.00 | 0.00 | 79 | 1012.2 |
| 20260509082020 | 7 | 181 | 0.0 | 0.0 | 0.00 | 0.00 | 0.00 | 79 | 1012.2 |
| 20260509081519 | 7 | 180 | 0.0 | 0.0 | 0.00 | 0.00 | 0.00 | 79 | 1012.2 |
| 20260509081019 | 7 | 180 | 0.0 | 0.0 | 0.00 | 0.00 | 0.00 | 79 | 1012.2 |
| 20260509080518 | 7 | 180 | 0.0 | 0.0 | 0.00 | 0.00 | 0.00 | 79 | 1012.3 |
| 20260509080018 | 7 | 181 | 0.0 | 0.0 | 0.00 | 0.00 | 0.00 | 79 | 1012.3 |
| 20260509075517 | 7 | 181 | 0.0 | 0.0 | 0.00 | 0.00 | 0.00 | 79 | 1012.3 |
| 20260509075016 | 7 | 180 | 0.0 | 0.0 | 0.00 | 0.00 | 0.00 | 79 | 1012.3 |
| 20260509074517 | 7 | 181 | 0.0 | 0.0 | 0.00 | 0.00 | 0.00 | 79 | 1012.3 |
| 20260509074016 | 7 | 181 | 0.0 | 0.0 | 0.00 | 0.00 | 0.00 | 79 | 1012.4 |
| 20260509073516 | 7 | 181 | 0.0 | 0.0 | 0.00 | 0.00 | 0.00 | 79 | 1012.5 |
| 20260509073016 | 7 | 181 | 0.0 | 0.0 | 0.00 | 0.00 | 0.00 | 79 | 1012.5 |
| 20260509072516 | 7 | 181 | 0.0 | 0.0 | 0.00 | 0.00 | 0.00 | 78 | 1012.5 |
| 20260509072017 | 7 | 181 | 0.0 | 0.0 | 0.00 | 0.00 | 0.00 | 78 | 1012.6 |
| 20260509071516 | 7 | 180 | 0.0 | 0.0 | 0.00 | 0.00 | 0.00 | 78 | 1012.7 |
| 20260509071016 | 7 | 181 | 0.0 | 0.0 | 0.00 | 0.00 | 0.00 | 77 | 1012.8 |
| 20260509070519 | 7 | 181 | 0.0 | 0.0 | 0.00 | 0.00 | 0.00 | 78 | 1012.8 |
| 20260509070015 | 7 | 181 | 0.0 | 0.0 | 0.00 | 0.00 | 0.00 | 77 | 1012.6 |
| 20260509065514 | 7 | 181 | 0.0 | 0.0 | 0.00 | 0.00 | 0.00 | 77 | 1012.6 |
| 20260509065013 | 7 | 181 | 0.0 | 0.0 | 0.00 | 0.00 | 0.00 | 76 | 1012.6 |
| 20260509064513 | 8 | 181 | 0.0 | 0.0 | 0.00 | 0.00 | 0.00 | 76 | 1012.7 |
| 20260509064014 | 8 | 181 | 0.0 | 0.0 | 0.00 | 0.00 | 0.00 | 76 | 1012.8 |
| 20260509063513 | 8 | 181 | 0.0 | 0.0 | 0.00 | 0.00 | 0.00 | 76 | 1012.8 |
| 20260509063013 | 8 | 180 | 0.0 | 0.0 | 0.00 | 0.00 | 0.00 | 75 | 1012.8 |
| 20260509062515 | 8 | 180 | 0.0 | 0.0 | 0.00 | 0.00 | 0.00 | 75 | 1012.8 |
| 20260509062016 | 8 | 181 | 0.0 | 0.0 | 0.00 | 0.00 | 0.00 | 74 | 1012.8 |
| 20260509061512 | 8 | 181 | 0.0 | 0.0 | 0.00 | 0.00 | 0.00 | 75 | 1012.8 |
| 20260509061012 | 8 | 180 | 0.0 | 0.0 | 0.00 | 0.00 | 0.00 | 75 | 1012.9 |
| 20260509060513 | 8 | 181 | 0.0 | 0.0 | 0.00 | 0.00 | 0.00 | 75 | 1012.8 |
| 20260509060010 | 8 | 181 | 0.0 | 0.0 | 0.00 | 0.00 | 0.00 | 75 | 1012.8 |
| 20260509055510 | 7 | 181 | 0.0 | 0.0 | 0.00 | 0.00 | 0.00 | 75 | 1012.7 |
| 20260509055012 | 7 | 181 | 0.0 | 0.0 | 0.00 | 0.00 | 0.00 | 74 | 1012.8 |
| 20260509054509 | 7 | 181 | 0.0 | 0.0 | 0.00 | 0.00 | 0.00 | 74 | 1012.8 |
| 20260509054010 | 7 | 180 | 0.0 | 0.0 | 0.00 | 0.00 | 0.00 | 73 | 1012.7 |
| 20260509053510 | 7 | 180 | 0.0 | 0.0 | 0.00 | 0.00 | 0.00 | 73 | 1012.7 |
| 20260509053009 | 7 | 181 | 0.0 | 0.0 | 0.00 | 0.00 | 0.00 | 73 | 1012.6 |
| 20260509052508 | 7 | 180 | 0.0 | 0.0 | 0.00 | 0.00 | 0.00 | 73 | 1012.6 |
| 20260509052008 | 7 | 180 | 0.0 | 0.0 | 0.00 | 0.00 | 0.00 | 75 | 1012.6 |
| 20260509051514 | 7 | 180 | 0.0 | 0.0 | 0.00 | 0.00 | 0.00 | 75 | 1012.6 |
| 20260509051009 | 7 | 181 | 0.0 | 0.0 | 0.00 | 0.00 | 0.00 | 75 | 1012.6 |
| 20260509050508 | 7 | 181 | 0.0 | 0.0 | 0.00 | 0.00 | 0.00 | 76 | 1012.8 |
| 20260509050007 | 7 | 181 | 0.0 | 0.0 | 0.00 | 0.00 | 0.00 | 77 | 1012.6 |
| 20260509045507 | 7 | 180 | 0.0 | 0.0 | 0.00 | 0.00 | 0.00 | 77 | 1012.7 |
| 20260509045007 | 7 | 180 | 0.0 | 0.0 | 0.00 | 0.00 | 0.00 | 76 | 1012.7 |
| 20260509044507 | 7 | 180 | 0.0 | 0.0 | 0.00 | 0.00 | 0.00 | 76 | 1012.7 |
| 20260509044006 | 7 | 181 | 0.0 | 0.0 | 0.00 | 0.00 | 0.00 | 75 | 1012.6 |
| 20260509043508 | 7 | 180 | 0.0 | 0.0 | 0.00 | 0.00 | 0.00 | 78 | 1012.7 |
| 20260509043005 | 7 | 181 | 0.0 | 0.0 | 0.00 | 0.00 | 0.00 | 78 | 1012.6 |
| 20260509042505 | 7 | 180 | 0.0 | 0.0 | 0.00 | 0.00 | 0.00 | 78 | 1012.6 |
| 20260509042005 | 7 | 180 | 0.0 | 0.0 | 0.00 | 0.00 | 0.00 | 76 | 1012.6 |
| 20260509041503 | 7 | 180 | 0.0 | 0.0 | 0.00 | 0.00 | 0.00 | 76 | 1012.5 |
| 20260509041003 | 7 | 180 | 0.0 | 0.0 | 0.00 | 0.00 | 0.00 | 76 | 1012.4 |
| 20260509040501 | 7 | 180 | 0.0 | 0.0 | 0.00 | 0.00 | 0.00 | 75 | 1012.2 |
| 20260509040100 | 7 | 180 | 0.0 | 0.0 | 0.00 | 0.00 | 0.00 | 73 | 1012.4 |
| 20260509035600 | 7 | 181 | 0.0 | 0.0 | 0.00 | 0.00 | 0.00 | 70 | 1012.4 |
| 20260509035058 | 8 | 181 | 0.0 | 0.0 | 0.00 | 0.00 | 0.00 | 69 | 1012.3 |
| 20260509034559 | 8 | 180 | 0.0 | 0.0 | 0.00 | 0.00 | 0.00 | 67 | 1012.3 |
| 20260509034057 | 8 | 180 | 0.0 | 0.0 | 0.00 | 0.00 | 0.00 | 68 | 1012.2 |
| 20260509033558 | 8 | 180 | 0.0 | 0.0 | 0.00 | 0.00 | 0.00 | 68 | 1012.2 |
| 20260509033100 | 8 | 180 | 0.0 | 0.0 | 0.00 | 0.00 | 0.00 | 68 | 1012.3 |
| 20260509032558 | 8 | 180 | 0.0 | 0.0 | 0.00 | 0.00 | 0.00 | 68 | 1012.3 |
| 20260509032057 | 8 | 180 | 0.0 | 0.0 | 0.00 | 0.00 | 0.00 | 69 | 1012.3 |
| 20260509031559 | 8 | 181 | 0.0 | 0.0 | 0.00 | 0.00 | 0.00 | 72 | 1012.2 |
| 20260509031057 | 8 | 180 | 0.0 | 0.0 | 0.00 | 0.00 | 0.00 | 72 | 1012.3 |
| 20260509030556 | 8 | 180 | 0.0 | 0.0 | 0.00 | 0.00 | 0.00 | 71 | 1012.3 |
| 20260509030055 | 8 | 181 | 0.0 | 0.0 | 0.00 | 0.00 | 0.00 | 69 | 1012.1 |
| 20260509025558 | 8 | 180 | 0.0 | 0.0 | 0.00 | 0.00 | 0.00 | 68 | 1012.1 |
| 20260509025054 | 8 | 181 | 0.0 | 0.0 | 0.00 | 0.00 | 0.00 | 68 | 1012.1 |
| 20260509024554 | 8 | 180 | 0.0 | 0.0 | 0.00 | 0.00 | 0.00 | 67 | 1012.1 |
| 20260509024054 | 8 | 180 | 0.0 | 0.0 | 0.00 | 0.00 | 0.00 | 66 | 1012.1 |
| 20260509023553 | 9 | 181 | 0.0 | 0.0 | 0.00 | 0.00 | 0.00 | 67 | 1012.0 |
| 20260509023052 | 9 | 181 | 0.0 | 0.0 | 0.00 | 0.00 | 0.00 | 68 | 1012.0 |
| 20260509022553 | 9 | 181 | 0.0 | 0.0 | 0.00 | 0.00 | 0.00 | 68 | 1012.0 |
| 20260509022051 | 9 | 181 | 0.0 | 0.0 | 0.00 | 0.00 | 0.00 | 68 | 1011.9 |
| 20260509021550 | 10 | 180 | 0.0 | 0.0 | 0.00 | 0.00 | 0.00 | 66 | 1011.9 |
| 20260509021049 | 10 | 180 | 0.0 | 0.0 | 0.00 | 0.00 | 0.00 | 66 | 1011.7 |
| 20260509020548 | 10 | 180 | 0.0 | 0.0 | 0.00 | 0.00 | 0.00 | 66 | 1011.8 |
| 20260509020048 | 10 | 180 | 0.0 | 0.0 | 0.00 | 0.00 | 0.00 | 64 | 1011.7 |
| 20260509015548 | 10 | 180 | 0.0 | 0.0 | 0.00 | 0.00 | 0.00 | 62 | 1011.6 |
| 20260509015048 | 10 | 180 | 0.0 | 0.0 | 0.00 | 0.00 | 0.00 | 60 | 1011.4 |
| 20260509014546 | 10 | 180 | 0.0 | 0.0 | 0.00 | 0.00 | 0.00 | 60 | 1011.4 |
| 20260509014045 | 10 | 180 | 0.0 | 0.0 | 0.00 | 0.00 | 0.00 | 59 | 1011.3 |
| 20260509013545 | 11 | 180 | 0.0 | 0.0 | 0.00 | 0.00 | 0.00 | 58 | 1011.3 |
| 20260509013053 | 11 | 180 | 0.0 | 0.0 | 0.00 | 0.00 | 0.00 | 56 | 1011.2 |
| 20260509012544 | 11 | 180 | 0.0 | 0.0 | 0.00 | 0.00 | 0.00 | 54 | 1011.2 |
| 20260509012044 | 11 | 180 | 0.0 | 0.0 | 0.00 | 0.00 | 0.00 | 53 | 1011.2 |
| 20260509011543 | 11 | 180 | 0.0 | 0.0 | 0.00 | 0.00 | 0.00 | 52 | 1011.1 |
| 20260509011042 | 11 | 180 | 0.0 | 0.0 | 0.00 | 0.00 | 0.00 | 50 | 1011.0 |
| 20260509010542 | 12 | 182 | 0.0 | 1.6 | 0.00 | 0.00 | 0.00 | 50 | 1010.9 |
| 20260509010041 | 12 | 182 | 0.0 | 1.6 | 0.00 | 0.00 | 0.00 | 50 | 1010.8 |
| 20260509005540 | 12 | 216 | 0.0 | 3.2 | 0.00 | 0.00 | 0.00 | 49 | 1010.7 |
| 20260509005038 | 12 | 216 | 0.0 | 6.4 | 0.00 | 0.00 | 0.00 | 49 | 1010.5 |
| 20260509004540 | 12 | 313 | 0.0 | 6.4 | 0.00 | 0.00 | 0.00 | 49 | 1010.4 |
| 20260509004038 | 12 | 1 | 0.0 | 1.6 | 0.00 | 0.00 | 0.00 | 48 | 1010.4 |
| 20260509003537 | 12 | 14 | 0.0 | 4.8 | 0.00 | 0.00 | 0.00 | 47 | 1010.3 |
| 20260509003036 | 12 | 177 | 0.0 | 4.8 | 0.00 | 0.00 | 0.00 | 49 | 1010.1 |
| 20260509002539 | 12 | 7 | 0.0 | 1.6 | 0.00 | 0.00 | 0.00 | 48 | 1010.0 |
| 20260509002035 | 12 | 26 | 0.0 | 0.0 | 0.00 | 0.00 | 0.00 | 48 | 1010.0 |
| 20260509001540 | 13 | 22 | 0.0 | 4.8 | 0.00 | 0.00 | 0.00 | 48 | 1009.9 |
| 20260509001034 | 13 | 342 | 0.0 | 6.4 | 0.00 | 0.00 | 0.00 | 47 | 1009.8 |
| 20260509000535 | 13 | 356 | 0.0 | 6.4 | 0.00 | 0.00 | 0.00 | 47 | 1009.8 |
| 20260509000032 | 13 | 345 | 0.0 | 4.8 | 0.00 | 0.00 | 0.00 | 47 | 1009.6 |
| 20260508235531 | 13 | 1 | 0.0 | 4.8 | 0.00 | 0.00 | 0.00 | 47 | 1009.4 |
| 20260508235031 | 13 | 3 | 0.0 | 6.4 | 0.00 | 0.00 | 0.00 | 46 | 1009.3 |
| 20260508234531 | 13 | 339 | 1.6 | 8.0 | 0.00 | 0.00 | 0.00 | 46 | 1009.3 |
| 20260508234033 | 13 | 356 | 1.6 | 8.0 | 0.00 | 0.00 | 0.00 | 46 | 1009.1 |
| 20260508233531 | 13 | 4 | 1.6 | 12.9 | 0.00 | 0.00 | 0.00 | 46 | 1009.0 |
| 20260508233031 | 14 | 337 | 1.6 | 12.9 | 0.00 | 0.00 | 0.00 | 45 | 1008.9 |
| 20260508232530 | 14 | 8 | 1.6 | 11.3 | 0.00 | 0.00 | 0.00 | 45 | 1008.8 |
| 20260508232030 | 14 | 273 | 1.6 | 11.3 | 0.00 | 0.00 | 0.00 | 46 | 1008.8 |
| 20260508231534 | 14 | 242 | 0.0 | 11.3 | 0.00 | 0.00 | 0.00 | 46 | 1008.8 |
| 20260508231029 | 14 | 256 | 1.6 | 11.3 | 0.00 | 0.00 | 0.00 | 45 | 1008.7 |
| 20260508230529 | 14 | 5 | 1.6 | 8.0 | 0.00 | 0.00 | 0.00 | 47 | 1008.7 |
| 20260508230028 | 15 | 349 | 0.0 | 8.0 | 0.00 | 0.00 | 0.00 | 46 | 1008.6 |
| 20260508225529 | 15 | 349 | 1.6 | 19.3 | 0.00 | 0.00 | 0.00 | 46 | 1008.6 |
| 20260508225028 | 15 | 188 | 1.6 | 19.3 | 0.00 | 0.00 | 0.00 | 44 | 1008.6 |
| 20260508224535 | 15 | 1 | 1.6 | 9.7 | 0.00 | 0.00 | 0.00 | 45 | 1008.6 |
| 20260508224031 | 15 | 211 | 3.2 | 8.0 | 0.00 | 0.00 | 0.00 | 45 | 1008.5 |
| 20260508223529 | 15 | 354 | 0.0 | 4.8 | 0.00 | 0.00 | 0.00 | 48 | 1008.4 |
| 20260508223042 | 15 | 360 | 0.0 | 9.7 | 0.00 | 0.00 | 0.00 | 48 | 1008.4 |
| 20260508222528 | 15 | 198 | 3.2 | 16.1 | 0.00 | 0.00 | 0.00 | 48 | 1008.4 |
| 20260508222027 | 15 | 356 | 1.6 | 16.1 | 0.00 | 0.00 | 0.00 | 47 | 1008.3 |
| 20260508221527 | 15 | 2 | 0.0 | 8.0 | 0.00 | 0.00 | 0.00 | 48 | 1008.3 |
| 20260508221027 | 15 | 329 | 1.6 | 9.7 | 0.00 | 0.00 | 0.00 | 49 | 1008.4 |
| 20260508220527 | 15 | 346 | 3.2 | 11.3 | 0.00 | 0.00 | 0.00 | 48 | 1008.4 |
| 20260508220030 | 15 | 186 | 3.2 | 11.3 | 0.00 | 0.00 | 0.00 | 48 | 1008.3 |
| 20260508215526 | 15 | 3 | 1.6 | 11.3 | 0.00 | 0.00 | 0.00 | 48 | 1008.3 |
| 20260508215026 | 15 | 6 | 1.6 | 12.9 | 0.00 | 0.00 | 0.00 | 48 | 1008.3 |
| 20260508214547 | 15 | 5 | 4.8 | 12.9 | 0.00 | 0.00 | 0.00 | 47 | 1008.3 |
| 20260508214026 | 15 | 5 | 3.2 | 11.3 | 0.00 | 0.00 | 0.00 | 47 | 1008.2 |
| 20260508213525 | 15 | 346 | 0.0 | 8.0 | 0.00 | 0.00 | 0.00 | 48 | 1008.3 |
| 20260508213025 | 15 | 7 | 0.0 | 9.7 | 0.00 | 0.00 | 0.00 | 47 | 1008.2 |
| 20260508212526 | 15 | 10 | 3.2 | 9.7 | 0.00 | 0.00 | 0.00 | 48 | 1008.2 |
| 20260508212025 | 15 | 354 | 1.6 | 11.3 | 0.00 | 0.00 | 0.00 | 47 | 1008.2 |
| 20260508211525 | 15 | 360 | 1.6 | 11.3 | 0.00 | 0.00 | 0.00 | 47 | 1008.2 |
| 20260508211025 | 15 | 350 | 3.2 | 9.7 | 0.00 | 0.00 | 0.00 | 47 | 1008.2 |
| 20260508210525 | 15 | 360 | 3.2 | 9.7 | 0.00 | 0.00 | 0.00 | 47 | 1008.2 |
| 20260508210026 | 15 | 358 | 0.0 | 8.0 | 0.00 | 0.00 | 0.00 | 47 | 1008.0 |
| 20260508205523 | 16 | 8 | 0.0 | 8.0 | 0.00 | 0.00 | 0.00 | 47 | 1008.0 |
| 20260508205024 | 15 | 359 | 1.6 | 12.9 | 0.00 | 0.00 | 0.00 | 48 | 1008.0 |
| 20260508204626 | 15 | 358 | 1.6 | 12.9 | 0.00 | 0.00 | 0.00 | 46 | 1008.1 |
| 20260508204023 | 16 | 7 | 3.2 | 11.3 | 0.00 | 0.00 | 0.00 | 47 | 1007.9 |
| 20260508203523 | 16 | 86 | 3.2 | 9.7 | 0.00 | 0.00 | 0.00 | 48 | 1008.0 |
| 20260508203023 | 16 | 8 | 1.6 | 12.9 | 0.00 | 0.00 | 0.00 | 48 | 1008.0 |
| 20260508202523 | 15 | 118 | 3.2 | 12.9 | 0.00 | 0.00 | 0.00 | 48 | 1008.0 |
| 20260508202022 | 15 | 204 | 1.6 | 6.4 | 0.00 | 0.00 | 0.00 | 50 | 1008.0 |
| 20260508201522 | 15 | 5 | 0.0 | 8.0 | 0.00 | 0.00 | 0.00 | 50 | 1007.9 |
| 20260508201022 | 16 | 186 | 0.0 | 9.7 | 0.00 | 0.00 | 0.00 | 49 | 1007.9 |
| 20260508200522 | 16 | 204 | 1.6 | 12.9 | 0.00 | 0.00 | 0.00 | 50 | 1007.8 |
| 20260508200023 | 16 | 190 | 1.6 | 12.9 | 0.00 | 0.00 | 0.00 | 49 | 1007.8 |
| 20260508195521 | 16 | 356 | 0.0 | 12.9 | 0.00 | 0.00 | 0.00 | 53 | 1007.9 |
| 20260508195021 | 15 | 147 | 3.2 | 12.9 | 0.00 | 0.00 | 0.00 | 51 | 1007.9 |
| 20260508194521 | 15 | 100 | 0.0 | 8.0 | 0.00 | 0.00 | 0.00 | 55 | 1007.9 |
| 20260508194023 | 15 | 232 | 1.6 | 8.0 | 0.00 | 0.00 | 0.00 | 64 | 1008.1 |
| 20260508193520 | 14 | 209 | 0.0 | 8.0 | 0.00 | 0.00 | 0.00 | 57 | 1008.2 |
| 20260508193019 | 14 | 198 | 0.0 | 6.4 | 0.00 | 0.00 | 0.00 | 57 | 1008.1 |
| 20260508192520 | 14 | 95 | 1.6 | 6.4 | 0.00 | 0.00 | 0.00 | 56 | 1008.1 |
| 20260508192020 | 14 | 221 | 0.0 | 9.7 | 0.00 | 0.00 | 0.00 | 54 | 1008.2 |
| 20260508191520 | 14 | 280 | 1.6 | 11.3 | 0.00 | 0.00 | 0.00 | 55 | 1008.1 |
| 20260508191020 | 15 | 229 | 3.2 | 11.3 | 0.00 | 0.00 | 0.00 | 54 | 1008.1 |
| 20260508190518 | 15 | 11 | 0.0 | 9.7 | 0.00 | 0.00 | 0.00 | 49 | 1008.0 |
| 20260508190036 | 15 | 195 | 3.2 | 11.3 | 0.00 | 0.00 | 0.00 | 46 | 1008.0 |
| 20260508185519 | 15 | 357 | 3.2 | 12.9 | 0.00 | 0.00 | 0.00 | 43 | 1007.5 |
| 20260508185019 | 16 | 10 | 3.2 | 14.5 | 0.00 | 0.00 | 0.00 | 40 | 1007.5 |
| 20260508184528 | 16 | 353 | 6.4 | 14.5 | 0.00 | 0.00 | 0.00 | 38 | 1007.2 |
| 20260508184020 | 16 | 19 | 3.2 | 16.1 | 0.00 | 0.00 | 0.00 | 36 | 1006.9 |
| 20260508183517 | 16 | 230 | 1.6 | 16.1 | 0.00 | 0.00 | 0.00 | 37 | 1007.0 |
| 20260508183028 | 17 | 333 | 3.2 | 12.9 | 0.00 | 0.00 | 0.00 | 38 | 1007.0 |
| 20260508182517 | 17 | 11 | 3.2 | 11.3 | 0.00 | 0.00 | 0.00 | 35 | 1007.0 |
| 20260508182016 | 17 | 119 | 1.6 | 9.7 | 0.00 | 0.00 | 0.00 | 36 | 1006.9 |
| 20260508181518 | 17 | 326 | 1.6 | 9.7 | 0.00 | 0.00 | 0.00 | 36 | 1006.9 |
| 20260508181016 | 17 | 168 | 3.2 | 12.9 | 0.00 | 0.00 | 0.00 | 34 | 1007.0 |
| 20260508180516 | 18 | 205 | 3.2 | 14.5 | 0.00 | 0.00 | 0.00 | 36 | 1007.0 |
| 20260508180015 | 18 | 10 | 3.2 | 14.5 | 0.00 | 0.00 | 0.00 | 36 | 1007.0 |
| 20260508175514 | 18 | 14 | 0.0 | 9.7 | 0.00 | 0.00 | 0.00 | 35 | 1006.9 |
| 20260508175014 | 18 | 359 | 1.6 | 9.7 | 0.00 | 0.00 | 0.00 | 36 | 1006.9 |
| 20260508174512 | 18 | 202 | 1.6 | 8.0 | 0.00 | 0.00 | 0.00 | 35 | 1007.0 |
| 20260508174012 | 18 | 17 | 0.0 | 8.0 | 0.00 | 0.00 | 0.00 | 39 | 1007.2 |
| 20260508173510 | 17 | 209 | 1.6 | 8.0 | 0.00 | 0.00 | 0.00 | 39 | 1007.2 |
| 20260508173012 | 17 | 204 | 0.0 | 8.0 | 0.00 | 0.00 | 0.00 | 40 | 1007.2 |
| 20260508172510 | 17 | 156 | 0.0 | 8.0 | 0.00 | 0.00 | 0.00 | 38 | 1007.3 |
| 20260508172010 | 17 | 19 | 1.6 | 9.7 | 0.00 | 0.00 | 0.00 | 36 | 1007.3 |
| 20260508171510 | 17 | 359 | 1.6 | 12.9 | 0.00 | 0.00 | 0.00 | 37 | 1007.3 |
| 20260508171008 | 17 | 6 | 3.2 | 12.9 | 0.00 | 0.00 | 0.00 | 37 | 1007.4 |
| 20260508170509 | 17 | 180 | 0.0 | 9.7 | 0.00 | 0.00 | 0.00 | 39 | 1007.4 |
| 20260508170010 | 17 | 211 | 0.0 | 6.4 | 0.00 | 0.00 | 0.00 | 37 | 1007.3 |
| 20260508165508 | 17 | 356 | 0.0 | 12.9 | 0.00 | 0.00 | 0.00 | 39 | 1007.3 |
| 20260508165010 | 17 | 212 | 3.2 | 14.5 | 0.00 | 0.00 | 0.00 | 38 | 1007.5 |
| 20260508164519 | 17 | 337 | 3.2 | 14.5 | 0.00 | 0.00 | 0.00 | 36 | 1007.6 |
| 20260508164009 | 17 | 172 | 1.6 | 9.7 | 0.00 | 0.00 | 0.00 | 39 | 1007.6 |
| 20260508163506 | 17 | 337 | 1.6 | 9.7 | 0.00 | 0.00 | 0.00 | 39 | 1007.6 |
| 20260508163013 | 17 | 192 | 1.6 | 8.0 | 0.00 | 0.00 | 0.00 | 37 | 1007.6 |
| 20260508162505 | 17 | 203 | 3.2 | 12.9 | 0.00 | 0.00 | 0.00 | 37 | 1007.6 |
| 20260508162003 | 17 | 358 | 3.2 | 12.9 | 0.00 | 0.00 | 0.00 | 40 | 1007.7 |
| 20260508161507 | 17 | 199 | 0.0 | 9.7 | 0.00 | 0.00 | 0.00 | 46 | 1007.6 |
| 20260508161003 | 16 | 190 | 1.6 | 8.0 | 0.00 | 0.00 | 0.00 | 40 | 1007.7 |
| 20260508160505 | 16 | 15 | 1.6 | 8.0 | 0.00 | 0.00 | 0.00 | 38 | 1007.9 |
| 20260508160001 | 16 | 254 | 0.0 | 8.0 | 0.00 | 0.00 | 0.00 | 39 | 1007.8 |
| 20260508155501 | 17 | 3 | 0.0 | 8.0 | 0.00 | 0.00 | 0.00 | 41 | 1008.0 |
| 20260508155100 | 17 | 156 | 0.0 | 8.0 | 0.00 | 0.00 | 0.00 | 43 | 1007.9 |
| 20260508154559 | 16 | 14 | 0.0 | 6.4 | 0.00 | 0.00 | 0.00 | 40 | 1007.9 |
| 20260508154057 | 16 | 349 | 0.0 | 8.0 | 0.00 | 0.00 | 0.00 | 43 | 1008.0 |
| 20260508153558 | 15 | 171 | 0.0 | 8.0 | 0.00 | 0.00 | 0.00 | 42 | 1008.2 |
| 20260508153059 | 15 | 360 | 1.6 | 9.7 | 0.00 | 0.00 | 0.00 | 40 | 1008.2 |
| 20260508152557 | 16 | 335 | 1.6 | 12.9 | 0.00 | 0.00 | 0.00 | 42 | 1008.3 |
| 20260508152055 | 15 | 193 | 1.6 | 12.9 | 0.00 | 0.00 | 0.00 | 43 | 1008.4 |
| 20260508151554 | 15 | 360 | 1.6 | 11.3 | 0.00 | 0.00 | 0.00 | 40 | 1008.4 |
| 20260508151055 | 15 | 162 | 3.2 | 12.9 | 0.00 | 0.00 | 0.00 | 41 | 1008.4 |
| 20260508150553 | 15 | 350 | 1.6 | 12.9 | 0.00 | 0.00 | 0.00 | 42 | 1008.4 |
| 20260508150052 | 15 | 330 | 1.6 | 11.3 | 0.00 | 0.00 | 0.00 | 42 | 1008.5 |
| 20260508145551 | 15 | 351 | 3.2 | 11.3 | 0.00 | 0.00 | 0.00 | 42 | 1008.6 |
| 20260508145051 | 15 | 4 | 3.2 | 11.3 | 0.00 | 0.00 | 0.00 | 42 | 1008.6 |
| 20260508144553 | 14 | 351 | 1.6 | 12.9 | 0.00 | 0.00 | 0.00 | 42 | 1008.6 |
| 20260508144049 | 14 | 218 | 1.6 | 12.9 | 0.00 | 0.00 | 0.00 | 41 | 1008.6 |
| 20260508143549 | 14 | 214 | 1.6 | 11.3 | 0.00 | 0.00 | 0.00 | 43 | 1008.6 |
| 20260508143054 | 14 | 159 | 1.6 | 11.3 | 0.00 | 0.00 | 0.00 | 40 | 1008.7 |
| 20260508142547 | 14 | 356 | 3.2 | 14.5 | 0.00 | 0.00 | 0.00 | 42 | 1008.7 |
| 20260508142047 | 14 | 344 | 3.2 | 14.5 | 0.00 | 0.00 | 0.00 | 42 | 1008.7 |
| 20260508141559 | 14 | 187 | 0.0 | 9.7 | 0.00 | 0.00 | 0.00 | 42 | 1008.7 |
| 20260508141044 | 13 | 332 | 3.2 | 9.7 | 0.00 | 0.00 | 0.00 | 42 | 1008.7 |
| 20260508140548 | 13 | 187 | 1.6 | 9.7 | 0.00 | 0.00 | 0.00 | 45 | 1008.7 |
| 20260508140044 | 13 | 184 | 1.6 | 9.7 | 0.00 | 0.00 | 0.00 | 44 | 1008.7 |
| 20260508135542 | 13 | 14 | 1.6 | 9.7 | 0.00 | 0.00 | 0.00 | 44 | 1008.7 |
| 20260508135040 | 13 | 238 | 0.0 | 9.7 | 0.00 | 0.00 | 0.00 | 46 | 1008.9 |
| 20260508134541 | 13 | 175 | 0.0 | 11.3 | 0.00 | 0.00 | 0.00 | 45 | 1008.9 |
| 20260508134039 | 13 | 344 | 4.8 | 11.3 | 0.00 | 0.00 | 0.00 | 42 | 1008.9 |
| 20260508133537 | 12 | 10 | 3.2 | 12.9 | 0.00 | 0.00 | 0.00 | 43 | 1008.9 |
| 20260508133038 | 12 | 8 | 4.8 | 12.9 | 0.00 | 0.00 | 0.00 | 43 | 1009.0 |
| 20260508132535 | 12 | 5 | 4.8 | 11.3 | 0.00 | 0.00 | 0.00 | 44 | 1009.1 |
| 20260508132034 | 12 | 351 | 0.0 | 6.4 | 0.00 | 0.00 | 0.00 | 47 | 1009.1 |
| 20260508131533 | 12 | 228 | 1.6 | 4.8 | 0.00 | 0.00 | 0.00 | 47 | 1009.1 |
| 20260508131032 | 11 | 8 | 0.0 | 4.8 | 0.00 | 0.00 | 0.00 | 49 | 1009.1 |
| 20260508130531 | 11 | 188 | 0.0 | 11.3 | 0.00 | 0.00 | 0.00 | 49 | 1009.2 |
| 20260508130037 | 11 | 8 | 1.6 | 11.3 | 0.00 | 0.00 | 0.00 | 48 | 1009.2 |
| 20260508125531 | 11 | 15 | 0.0 | 8.0 | 0.00 | 0.00 | 0.00 | 49 | 1009.2 |
| 20260508125031 | 11 | 356 | 1.6 | 9.7 | 0.00 | 0.00 | 0.00 | 49 | 1009.2 |
| 20260508124535 | 11 | 213 | 1.6 | 9.7 | 0.00 | 0.00 | 0.00 | 49 | 1009.2 |
| 20260508124031 | 11 | 318 | 1.6 | 8.0 | 0.00 | 0.00 | 0.00 | 50 | 1009.2 |
| 20260508123530 | 10 | 360 | 3.2 | 8.0 | 0.00 | 0.00 | 0.00 | 50 | 1009.3 |
| 20260508123030 | 10 | 7 | 0.0 | 6.4 | 0.00 | 0.00 | 0.00 | 53 | 1009.3 |
| 20260508122529 | 10 | 221 | 0.0 | 11.3 | 0.00 | 0.00 | 0.00 | 54 | 1009.4 |
| 20260508122029 | 10 | 162 | 1.6 | 11.3 | 0.00 | 0.00 | 0.00 | 53 | 1009.3 |
| 20260508121529 | 10 | 318 | 1.6 | 6.4 | 0.00 | 0.00 | 0.00 | 54 | 1009.3 |
| 20260508121028 | 9 | 358 | 0.0 | 4.8 | 0.00 | 0.00 | 0.00 | 57 | 1009.3 |
| 20260508120528 | 9 | 355 | 0.0 | 6.4 | 0.00 | 0.00 | 0.00 | 56 | 1009.3 |
| 20260508120028 | 9 | 38 | 0.0 | 8.0 | 0.00 | 0.00 | 0.00 | 56 | 1009.3 |
| 20260508115528 | 9 | 320 | 0.0 | 8.0 | 0.00 | 0.05 | 0.00 | 56 | 1009.3 |
| 20260508115027 | 9 | 1 | 0.0 | 6.4 | 0.00 | 0.05 | 0.00 | 55 | 1009.2 |
| 20260508114526 | 9 | 359 | 1.6 | 6.4 | 0.00 | 0.05 | 0.00 | 54 | 1009.2 |
| 20260508114026 | 9 | 179 | 0.0 | 4.8 | 0.00 | 0.05 | 0.00 | 57 | 1009.1 |
| 20260508113529 | 8 | 143 | 0.0 | 0.0 | 0.00 | 0.05 | 0.00 | 57 | 1009.1 |
| 20260508113025 | 8 | 188 | 0.0 | 3.2 | 0.00 | 0.05 | 0.00 | 59 | 1009.1 |
| 20260508112527 | 8 | 188 | 0.0 | 3.2 | 0.00 | 0.05 | 0.00 | 57 | 1009.0 |
| 20260508112025 | 8 | 213 | 0.0 | 3.2 | 0.00 | 0.05 | 0.00 | 59 | 1009.0 |
| 20260508111525 | 8 | 150 | 0.0 | 1.6 | 0.00 | 0.05 | 0.00 | 60 | 1009.1 |
| 20260508111028 | 8 | 141 | 0.0 | 1.6 | 0.00 | 0.05 | 0.00 | 59 | 1009.1 |
| 20260508110525 | 8 | 171 | 0.0 | 1.6 | 0.00 | 0.05 | 0.00 | 59 | 1009.0 |
| 20260508110023 | 8 | 171 | 0.0 | 1.6 | 0.00 | 0.05 | 0.00 | 60 | 1009.0 |
| 20260508105523 | 8 | 164 | 0.0 | 1.6 | 0.00 | 0.10 | 0.00 | 61 | 1008.9 |